[[{"header":{"parameterUnit":"m.s-1","parameterCategory":2,"la1":30.2991,"la2":30.254,"lo1":-89.0895,"lo2":-89.0444,"dy":0.0017,"dx":0.0017,"nx":28,"ny":28,"refTime":"2023-10-20T09:00:00:Z","depth":"0","parameterNumber":2,"parameterNumberName":"U-component_of_CURRENTS"},"data":[0,0,0,0,0,0,0,0,0,0,0,0,0,0,0,0,0,0,0,0,0,0,0,0,0,0,0,0,0,0,0,0,0,0,0,0,0,0,0,0,0,0,0,0,0,0,0,0,0,0,0,0,0,0,0,0,0,0,-0.2818,-0.2818,0,-0.2711,-0.271,-0.2708,-0.2669,-0.2669,-0.267,-0.2671,-0.2531,-0.2527,-0.2522,0,0,0,0,0,0,0,0,0,0,0,0,0,-0.2814,-0.2815,-0.2819,-0.2818,-0.2817,-0.2712,-0.271,-0.2708,-0.2668,-0.267,-0.2671,-0.2672,-0.2533,-0.2527,-0.2522,0,0,0,0,0,0,0,0,0,0,0,0,0,-0.2768,-0.2815,-0.2819,-0.2789,-0.2786,-0.2712,-0.2709,-0.2707,-0.2668,-0.267,-0.2671,-0.2672,-0.2534,-0.2528,-0.2521,-0.2452,0,0,-0.25,-0.2497,0,0,0,0,0,0,0,0,-0.277,-0.2767,-0.2794,-0.2791,-0.2787,-0.271,-0.2657,-0.2622,-0.2668,-0.2707,-0.2671,-0.2673,-0.2591,-0.2579,-0.2548,-0.2446,-0.244,-0.2499,-0.2495,-0.2492,-0.249,0,0,0,0,0,0,0,-0.2774,-0.277,-0.277,-0.2793,-0.2789,-0.2721,-0.2717,-0.2649,-0.2637,-0.2703,-0.2702,-0.2699,-0.2588,-0.2555,-0.2545,-0.2438,-0.25,-0.2494,-0.2489,-0.2487,-0.2309,-0.2308,0,0,0,0,0,0,-0.2807,-0.2775,-0.2774,-0.2768,-0.2788,-0.2722,-0.2716,-0.2728,-0.2639,-0.2628,-0.2698,-0.2697,-0.2566,-0.2553,-0.254,-0.2496,-0.2492,-0.2486,-0.2482,-0.231,-0.2309,-0.2308,0,0,0,0,0,0,-0.2807,-0.2808,-0.2778,-0.2772,-0.2764,-0.2722,-0.2735,-0.2726,-0.2704,-0.2636,-0.2624,-0.2687,-0.2567,-0.2549,-0.2497,-0.2489,-0.2483,-0.2477,-0.231,-0.2309,-0.2308,-0.238,0,0,0,0,0,0,-0.2808,-0.2809,-0.2815,-0.2775,-0.2766,-0.2762,-0.2734,-0.2723,-0.2702,-0.27,-0.2622,-0.261,-0.2566,-0.2508,-0.249,-0.2479,-0.2471,-0.2311,-0.231,-0.2309,-0.2379,-0.2382,-0.2385,0,0,0,0,0,-0.2808,-0.2803,-0.2816,-0.2815,-0.2781,-0.2763,-0.2752,-0.272,-0.2701,-0.2701,-0.2645,-0.2613,-0.2488,-0.2502,-0.2481,-0.2468,-0.2312,-0.231,-0.2309,-0.2378,-0.2381,-0.2385,0,0,0,0,0,0,-0.2745,-0.2799,-0.2811,-0.2808,-0.2807,-0.276,-0.2737,-0.2723,-0.2674,-0.2665,-0.2601,-0.2585,-0.2535,-0.2488,-0.2505,-0.2413,-0.2394,-0.2389,-0.2454,-0.2457,-0.246,-0.2413,-0.2466,0,0,0,0,0,-0.2753,-0.2793,-0.2809,-0.2797,-0.2807,-0.2775,-0.2757,-0.2748,-0.2706,-0.2686,-0.2631,-0.2565,-0.2507,-0.2477,-0.2417,-0.2362,-0.2324,-0.2341,-0.2344,-0.2347,-0.2295,-0.2283,-0.2281,-0.2304,-0.2304,-0.2304,0,0,-0.2707,-0.275,-0.2758,-0.2793,-0.2778,-0.2757,-0.2766,-0.275,-0.2717,-0.2675,-0.2601,-0.2571,-0.2495,-0.2442,-0.2414,-0.2406,-0.2323,-0.2345,-0.2348,-0.2293,-0.2282,-0.228,-0.2278,-0.2303,-0.2303,-0.2303,0,0,-0.2627,-0.2696,-0.2696,-0.2714,-0.2736,-0.2741,-0.2747,-0.2725,-0.2713,-0.2662,-0.262,-0.2583,-0.249,-0.2439,-0.2398,-0.2372,-0.2341,-0.237,-0.2343,-0.2336,-0.2334,-0.2332,-0.23,-0.2294,-0.2372,-0.2372,-0.2372,0,-0.2552,-0.2587,-0.2678,-0.2672,-0.2679,-0.2736,-0.2706,-0.2695,-0.2652,-0.2631,-0.265,-0.2513,-0.2474,-0.2385,-0.2386,-0.2376,-0.2366,-0.2346,-0.2342,-0.2339,-0.2335,-0.2303,-0.2296,-0.2375,-0.2375,-0.2374,-0.2374,0,-0.2474,-0.25,-0.2497,-0.2542,-0.2561,-0.2558,-0.2591,-0.2596,-0.2607,-0.2581,-0.2528,-0.249,-0.2412,-0.241,-0.2383,-0.2333,-0.2333,-0.2357,-0.2341,-0.2338,-0.2304,-0.2295,-0.238,-0.2379,-0.2378,-0.2377,0,0,-0.2302,-0.242,-0.2415,-0.2436,-0.2512,-0.251,-0.2507,-0.2513,-0.2491,-0.2477,-0.2433,-0.2359,-0.2368,-0.2319,-0.2311,-0.2295,-0.2288,-0.2317,-0.2316,-0.2296,-0.2262,-0.2097,-0.2071,-0.2339,-0.2338,-0.2336,-0.2256,0,-0.2204,-0.2196,-0.229,-0.2267,-0.2277,-0.2374,-0.2363,-0.2378,-0.241,-0.239,-0.2375,-0.2329,-0.2329,-0.2324,-0.2307,-0.2306,-0.2264,-0.2305,-0.2253,-0.2249,-0.2113,-0.2054,-0.1935,-0.1838,-0.2247,-0.2246,-0.2245,0,-0.2106,-0.2132,-0.2105,-0.219,-0.2198,-0.2183,-0.2237,-0.2233,-0.2251,-0.2282,-0.2265,-0.2278,-0.2242,-0.2268,-0.2219,-0.2261,-0.2233,-0.2225,-0.2223,-0.2018,-0.2064,-0.19,-0.1806,-0.1826,-0.2231,-0.2232,-0.2233,0,-0.1983,-0.2016,-0.201,-0.2027,-0.2102,-0.2098,-0.2126,-0.2164,-0.2199,-0.2209,-0.2258,-0.2214,-0.2223,-0.2198,-0.2169,-0.2224,-0.2106,-0.2196,-0.1993,-0.1983,-0.183,-0.1807,-0.1741,-0.2105,-0.2105,-0.2105,-0.2106,0,-0.189,-0.1879,-0.1943,-0.193,-0.1902,-0.1989,-0.1985,-0.2012,-0.2094,-0.2106,-0.2181,-0.2157,-0.2214,-0.2173,-0.2145,-0.2005,-0.2085,-0.1928,-0.1929,-0.1851,-0.1831,-0.1797,-0.1852,-0.2102,-0.2103,-0.2104,-0.2104,0,-0.1757,-0.1821,-0.1793,-0.1833,-0.1849,-0.1805,-0.192,-0.1961,-0.2032,-0.2069,-0.2089,-0.2136,-0.203,-0.2031,-0.1962,-0.1954,-0.1806,-0.1765,-0.1642,-0.1625,-0.1477,-0.1539,-0.1413,-0.1377,-0.157,-0.1565,-0.1561,0,-0.1701,-0.1671,-0.1672,-0.169,-0.1704,-0.1711,-0.1776,-0.1886,-0.197,-0.1998,-0.2024,-0.1937,-0.1739,-0.1579,-0.1556,-0.1438,-0.1517,-0.1331,-0.1381,-0.1379,-0.1455,-0.1538,-0.1527,-0.1239,-0.1233,-0.1228,-0.1223,0,-0.1537,-0.1523,-0.1492,-0.1549,-0.1597,-0.1659,-0.1745,-0.178,-0.1905,-0.1865,-0.1697,-0.1484,-0.1327,-0.1064,-0.0992,-0.0981,-0.131,-0.1215,-0.1266,-0.118,-0.1214,-0.121,-0.139,-0.1176,-0.1181,-0.1185,-0.1187,-0.1189,-0.138,-0.1324,-0.1334,-0.1391,-0.1482,-0.1569,-0.1513,-0.1605,-0.1545,-0.1392,-0.1311,-0.0878,-0.0707,-0.0505,-0.0571,-0.0726,-0.0849,-0.079,-0.0866,-0.0951,-0.0888,-0.0912,-0.0667,-0.0669,-0.0671,-0.0672,-0.0673,0,-0.1175,-0.1187,-0.1231,-0.129,-0.1379,-0.1462,-0.1504,-0.1394,-0.1164,-0.0979,-0.0668,-0.0172,-0.0008,-0.0073,-0.0295,-0.0409,-0.053,-0.0501,-0.0645,-0.0653,-0.0703,-0.0657,-0.0333,-0.0333,-0.0333,-0.0333,-0.0333,-0.0333,-0.1085,-0.1037,-0.1105,-0.1192,-0.1253,-0.1191,-0.1122,-0.0904,-0.0703,-0.0165,0.0199,0.0424,0.0382,0.002,-0.0299,-0.0371,-0.0479,-0.0435,-0.0538,-0.0644,-0.0681,-0.0716,-0.0685,-0.0372,-0.0372,-0.0449,-0.045,-0.0451]},{"header":{"parameterUnit":"m.s-1","parameterCategory":2,"la1":30.2991,"la2":30.254,"lo1":-89.0895,"lo2":-89.0444,"dy":0.0017,"dx":0.0017,"nx":28,"ny":28,"refTime":"2023-10-20T09:00:00:Z","depth":"0","parameterNumber":3,"parameterNumberName":"V-component_of_CURRENTS"},"data":[0,0,0,0,0,0,0,0,0,0,0,0,0,0,0,0,0,0,0,0,0,0,0,0,0,0,0,0,0,0,0,0,0,0,0,0,0,0,0,0,0,0,0,0,0,0,0,0,0,0,0,0,0,0,0,0,0,0,-0.021,-0.0209,0,-0.0141,-0.014,-0.0139,-0.0064,-0.0063,-0.0062,-0.0061,0.0053,0.0055,0.0058,0,0,0,0,0,0,0,0,0,0,0,0,0,-0.0236,-0.0236,-0.021,-0.0209,-0.0209,-0.0141,-0.014,-0.0139,-0.0064,-0.0063,-0.0061,-0.006,0.0053,0.0055,0.0058,0,0,0,0,0,0,0,0,0,0,0,0,0,-0.0201,-0.0236,-0.021,-0.0164,-0.0159,-0.0141,-0.014,-0.0139,-0.0064,-0.0063,-0.0061,-0.006,0.0052,0.0055,0.0058,0.0048,0,0,0.0068,0.0069,0,0,0,0,0,0,0,0,-0.0203,-0.02,-0.0171,-0.0167,-0.0162,-0.011,-0.0107,-0.0074,-0.0064,-0.0099,-0.0061,-0.0059,0.0001,0.0008,0.0019,0.0054,0.0059,0.0068,0.007,0.0071,0.0072,0,0,0,0,0,0,0,-0.0206,-0.0202,-0.0181,-0.0171,-0.0165,-0.0133,-0.0126,-0.0101,-0.0056,-0.0096,-0.009,-0.0085,0.0004,0.0016,0.0023,0.006,0.0068,0.0071,0.0073,0.0074,0.0178,0.0179,0,0,0,0,0,0,-0.022,-0.0205,-0.0184,-0.0179,-0.018,-0.0134,-0.0126,-0.0127,-0.0057,-0.0046,-0.0086,-0.0082,0.001,0.0019,0.0027,0.0046,0.0071,0.0074,0.0076,0.0177,0.0178,0.0179,0,0,0,0,0,0,-0.0221,-0.022,-0.0186,-0.0191,-0.0185,-0.0135,-0.0137,-0.0127,-0.0112,-0.0051,-0.0038,-0.0081,0.0011,0.0022,0.0051,0.005,0.0076,0.0079,0.0176,0.0177,0.0178,0.0067,0,0,0,0,0,0,-0.0223,-0.0221,-0.0225,-0.0192,-0.0185,-0.0178,-0.0138,-0.0127,-0.0112,-0.0105,-0.0043,-0.0031,0.0013,0.0046,0.0054,0.0055,0.0081,0.0175,0.0176,0.0178,0.007,0.0064,0.006,0,0,0,0,0,-0.0224,-0.0239,-0.0226,-0.0223,-0.0193,-0.0179,-0.0172,-0.013,-0.0113,-0.0111,-0.0069,-0.0032,0.0064,0.0048,0.0058,0.0059,0.0174,0.0176,0.0178,0.0072,0.0065,0.006,0,0,0,0,0,0,-0.0269,-0.0232,-0.0216,-0.0224,-0.0203,-0.0166,-0.0166,-0.014,-0.0107,-0.0102,-0.0042,-0.0027,0.0014,0.0049,0.003,0.0101,0.0133,0.0137,0.0049,0.0043,0.0039,-0.0038,0.0084,0,0,0,0,0,-0.028,-0.027,-0.0241,-0.0249,-0.0244,-0.0209,-0.0198,-0.0173,-0.0141,-0.0125,-0.008,-0.0026,0.0028,0.0042,0.01,0.0107,0.0155,0.0126,0.0121,0.0116,0.0065,0.01,0.0092,0.0185,0.0185,0.0185,0,0,-0.0306,-0.0281,-0.0279,-0.0256,-0.0241,-0.0257,-0.0199,-0.0193,-0.0207,-0.012,-0.012,-0.0039,0.0033,0.0065,0.0085,0.0087,0.0139,0.0119,0.0113,0.0064,0.0101,0.0091,0.0083,0.0186,0.0186,0.0186,0,0,-0.0361,-0.033,-0.0347,-0.0335,-0.0312,-0.0291,-0.0294,-0.026,-0.0242,-0.0224,-0.0153,-0.0096,-0.0022,0.0018,0.0051,0.0046,0.0125,0.0095,-0.0019,0.0017,0.0007,-0.0001,0.0138,0.0143,0.0073,0.0073,0.0072,0,-0.04,-0.0416,-0.0353,-0.0375,-0.0393,-0.0317,-0.037,-0.0337,-0.0294,-0.0305,-0.0233,-0.013,-0.0052,-0.0044,-0.0028,0.0028,0.0093,-0.0009,0.0003,-0.0004,-0.001,0.0133,0.014,0.0067,0.0068,0.0069,0.0069,0,-0.0468,-0.0488,-0.0503,-0.0507,-0.0513,-0.0538,-0.0503,-0.0499,-0.0454,-0.0419,-0.0377,-0.0258,-0.0215,-0.0146,-0.0089,-0.0091,-0.0006,0.0005,0.0001,-0.0028,0.0129,0.0138,0.006,0.0062,0.0063,0.0065,0,0,-0.0544,-0.0555,-0.056,-0.0616,-0.0593,-0.0625,-0.0647,-0.0666,-0.069,-0.0597,-0.0615,-0.0495,-0.0422,-0.0381,-0.0279,-0.0239,-0.0164,-0.0152,-0.0147,-0.0044,-0.0012,0.0049,0.0067,-0.0163,-0.0164,-0.0165,0.0146,0,-0.063,-0.0715,-0.0693,-0.0806,-0.0864,-0.0833,-0.0868,-0.0866,-0.0805,-0.078,-0.0666,-0.0609,-0.0512,-0.0463,-0.0419,-0.0206,-0.0162,-0.0246,0.0023,0.0033,0.0062,0.0069,0.0143,0.0421,0.0156,0.0157,0.0158,0,-0.0698,-0.0757,-0.088,-0.0988,-0.1015,-0.1069,-0.1137,-0.1157,-0.1093,-0.1037,-0.0974,-0.0836,-0.0729,-0.064,-0.0387,-0.0441,-0.0273,-0.0114,-0.0099,-0.0023,0.0104,0.0393,0.0448,0.0526,0.0173,0.0172,0.0171,0,-0.0782,-0.0895,-0.1012,-0.1043,-0.1131,-0.1213,-0.1268,-0.1249,-0.1248,-0.1194,-0.1112,-0.1007,-0.0833,-0.0702,-0.0338,-0.0376,-0.0014,-0.0022,0.0186,0.02,0.0318,0.034,0.0436,0.0077,0.0076,0.0076,0.0075,0,-0.0868,-0.0966,-0.1074,-0.1138,-0.1323,-0.134,-0.1465,-0.1488,-0.1423,-0.1335,-0.1253,-0.1059,-0.084,-0.0566,-0.0368,-0.0011,-0.0037,0.016,0.0249,0.0297,0.0312,0.0428,0.044,0.0087,0.0085,0.0083,0.0081,0,-0.0931,-0.0975,-0.1148,-0.1299,-0.1362,-0.1505,-0.1601,-0.1621,-0.1558,-0.1415,-0.1378,-0.1054,-0.0673,-0.043,-0.0065,0.0045,0.0395,0.0417,0.0514,0.0602,0.0762,0.0766,0.095,0.106,0.0645,0.0648,0.0651,0,-0.0966,-0.1045,-0.1281,-0.1395,-0.1481,-0.1654,-0.1715,-0.1716,-0.1643,-0.1319,-0.1183,-0.0804,-0.0406,0.0108,0.0299,0.0588,0.065,0.0794,0.0661,0.0764,0.0837,0.0825,0.0902,0.0857,0.0861,0.0864,0.0866,0,-0.1063,-0.1142,-0.1299,-0.1519,-0.1649,-0.1746,-0.1787,-0.1713,-0.1542,-0.1322,-0.0821,-0.0482,0.0018,0.0451,0.0721,0.0853,0.0844,0.0863,0.0929,0.0947,0.0982,0.1136,0.0734,0.0895,0.0892,0.089,0.0888,0.0887,-0.1141,-0.1288,-0.1466,-0.1676,-0.1769,-0.1717,-0.1656,-0.1523,-0.1287,-0.0757,-0.0504,0.0097,0.0536,0.0947,0.1033,0.1161,0.1111,0.1228,0.1229,0.1212,0.1256,0.0935,0.1185,0.1184,0.1183,0.1182,0.1182,0,-0.123,-0.1382,-0.1591,-0.1749,-0.1732,-0.1778,-0.1587,-0.1352,-0.0902,-0.0477,0.0022,0.0722,0.1095,0.1323,0.149,0.1543,0.1505,0.1583,0.1574,0.1639,0.1348,0.1288,0.1618,0.1617,0.1617,0.1617,0.1617,0.1617,-0.1285,-0.1499,-0.1613,-0.165,-0.1661,-0.1444,-0.1231,-0.0842,-0.0475,0.0288,0.0798,0.1168,0.1536,0.1677,0.1799,0.1805,0.1908,0.1891,0.1943,0.1704,0.1669,0.1636,0.158,0.1966,0.1966,0.2264,0.2266,0.2268]}],[{"header":{"parameterUnit":"m.s-1","parameterCategory":2,"la1":30.2991,"la2":30.254,"lo1":-89.0895,"lo2":-89.0444,"dy":0.0017,"dx":0.0017,"nx":28,"ny":28,"refTime":"2023-10-20T09:00:00:Z","depth":"2","parameterNumber":2,"parameterNumberName":"U-component_of_CURRENTS"},"data":[0,0,0,0,0,0,0,0,0,0,0,0,0,0,0,0,0,0,0,0,0,0,0,0,0,0,0,0,0,0,0,0,0,0,0,0,0,0,0,0,0,0,0,0,0,0,0,0,0,0,0,0,0,0,0,0,0,0,-0.2201,-0.2202,0,-0.2258,-0.2259,-0.2259,-0.2283,-0.2283,-0.2283,-0.2283,-0.2394,-0.2397,-0.24,0,0,0,0,0,0,0,0,0,0,0,0,0,-0.2143,-0.2144,-0.2201,-0.2202,-0.2203,-0.2258,-0.2259,-0.2259,-0.2283,-0.2283,-0.2283,-0.2283,-0.2393,-0.2397,-0.2401,0,0,0,0,0,0,0,0,0,0,0,0,0,-0.2181,-0.2144,-0.2201,-0.2221,-0.2224,-0.2258,-0.2259,-0.226,-0.2284,-0.2283,-0.2283,-0.2283,-0.2392,-0.2397,-0.2401,-0.2433,0,0,-0.2415,-0.2417,0,0,0,0,0,0,0,0,-0.2179,-0.2183,-0.2218,-0.222,-0.2223,-0.2263,-0.2279,-0.232,-0.2284,-0.2261,-0.2283,-0.2283,-0.2356,-0.2363,-0.2374,-0.2438,-0.2443,-0.2416,-0.2419,-0.2421,-0.2422,0,0,0,0,0,0,0,-0.2176,-0.2181,-0.2224,-0.2218,-0.2221,-0.2237,-0.2242,-0.2287,-0.231,-0.2263,-0.2265,-0.2271,-0.2357,-0.2369,-0.2377,-0.2445,-0.2416,-0.242,-0.2423,-0.2424,-0.2457,-0.2456,0,0,0,0,0,0,-0.2168,-0.2178,-0.2222,-0.2225,-0.22,-0.2238,-0.2244,-0.2251,-0.2308,-0.2316,-0.2271,-0.2272,-0.2361,-0.2371,-0.2381,-0.2399,-0.242,-0.2425,-0.2427,-0.2459,-0.2457,-0.2455,0,0,0,0,0,0,-0.2166,-0.2171,-0.222,-0.2203,-0.221,-0.2239,-0.2247,-0.2252,-0.2274,-0.2314,-0.2323,-0.2289,-0.2362,-0.2374,-0.2426,-0.2404,-0.2427,-0.2431,-0.2461,-0.2459,-0.2456,-0.245,0,0,0,0,0,0,-0.2164,-0.217,-0.2173,-0.2202,-0.2211,-0.2242,-0.2247,-0.2253,-0.2277,-0.2279,-0.2332,-0.2341,-0.2363,-0.2419,-0.243,-0.2411,-0.2435,-0.2464,-0.246,-0.2457,-0.2453,-0.2448,-0.2443,0,0,0,0,0,-0.2162,-0.217,-0.2173,-0.2178,-0.2213,-0.2243,-0.2249,-0.2269,-0.2278,-0.2288,-0.2324,-0.234,-0.2402,-0.2423,-0.2437,-0.2418,-0.2466,-0.2461,-0.2457,-0.2455,-0.2449,-0.2443,0,0,0,0,0,0,-0.2158,-0.2174,-0.2177,-0.2193,-0.2215,-0.2247,-0.2259,-0.2276,-0.2312,-0.2317,-0.2355,-0.2368,-0.2384,-0.2404,-0.2426,-0.2406,-0.2421,-0.2419,-0.2414,-0.2409,-0.2404,-0.2411,-0.2438,0,0,0,0,0,-0.2155,-0.2154,-0.2182,-0.2193,-0.2205,-0.2234,-0.2249,-0.2264,-0.2298,-0.2314,-0.2348,-0.2367,-0.2375,-0.24,-0.2408,-0.2439,-0.2436,-0.2417,-0.2412,-0.2409,-0.2417,-0.24,-0.2395,-0.2441,-0.2441,-0.2441,0,0,-0.2157,-0.2163,-0.2166,-0.219,-0.2209,-0.223,-0.2243,-0.2268,-0.2283,-0.2323,-0.2356,-0.2361,-0.2375,-0.2383,-0.2391,-0.2407,-0.2387,-0.2403,-0.2401,-0.2411,-0.2395,-0.2391,-0.2388,-0.2438,-0.2439,-0.2439,0,0,-0.2157,-0.2168,-0.2167,-0.2186,-0.221,-0.223,-0.224,-0.2275,-0.2287,-0.2323,-0.2326,-0.2331,-0.2371,-0.2364,-0.2368,-0.2346,-0.2354,-0.2329,-0.2334,-0.2317,-0.2314,-0.2312,-0.2286,-0.2281,-0.2338,-0.2338,-0.2338,0,-0.2154,-0.216,-0.2175,-0.2185,-0.2201,-0.2232,-0.2248,-0.2267,-0.2312,-0.2325,-0.2329,-0.2344,-0.2355,-0.2355,-0.2332,-0.2338,-0.233,-0.2365,-0.2315,-0.2312,-0.231,-0.2284,-0.2279,-0.2337,-0.2337,-0.2337,-0.2337,0,-0.2154,-0.2165,-0.2171,-0.2186,-0.221,-0.2228,-0.2259,-0.2281,-0.23,-0.2316,-0.232,-0.2327,-0.2339,-0.2316,-0.2329,-0.2302,-0.23,-0.2305,-0.234,-0.2306,-0.2279,-0.2274,-0.2336,-0.2336,-0.2337,-0.2337,0,0,-0.2109,-0.216,-0.2154,-0.2173,-0.2211,-0.2232,-0.2259,-0.2291,-0.2314,-0.2324,-0.234,-0.2322,-0.2325,-0.2325,-0.2319,-0.2303,-0.2265,-0.2302,-0.2302,-0.2295,-0.2223,-0.2095,-0.2077,-0.2271,-0.227,-0.2269,-0.2205,0,-0.2094,-0.2117,-0.2145,-0.2175,-0.2196,-0.2238,-0.2266,-0.2299,-0.2324,-0.2347,-0.2334,-0.2343,-0.2328,-0.2331,-0.2309,-0.228,-0.2254,-0.2281,-0.2241,-0.2239,-0.2146,-0.2068,-0.192,-0.184,-0.2201,-0.22,-0.2199,0,-0.206,-0.2086,-0.2112,-0.2179,-0.2193,-0.2215,-0.227,-0.23,-0.2339,-0.236,-0.2367,-0.2371,-0.2347,-0.2335,-0.2276,-0.2298,-0.2258,-0.2229,-0.2226,-0.211,-0.2102,-0.1933,-0.1818,-0.2191,-0.2192,-0.2192,-0.2193,0,-0.2,-0.2055,-0.2076,-0.2095,-0.2176,-0.2195,-0.2238,-0.2293,-0.2334,-0.2363,-0.2402,-0.2374,-0.2373,-0.2318,-0.2254,-0.2273,-0.2177,-0.2198,-0.2043,-0.2034,-0.19,-0.1879,-0.2145,-0.2145,-0.2146,-0.2146,-0.2146,0,-0.1954,-0.1969,-0.2051,-0.206,-0.2096,-0.2165,-0.2208,-0.2252,-0.2325,-0.2369,-0.2401,-0.2412,-0.2372,-0.2323,-0.2253,-0.2111,-0.2173,-0.202,-0.1998,-0.1888,-0.1867,-0.2176,-0.218,-0.2143,-0.2144,-0.2144,-0.2145,0,-0.1874,-0.1923,-0.1955,-0.2039,-0.2063,-0.2086,-0.2195,-0.2245,-0.2322,-0.238,-0.2397,-0.2438,-0.2342,-0.2275,-0.217,-0.2103,-0.1985,-0.1923,-0.1783,-0.1744,-0.1861,-0.1866,-0.1747,-0.1742,-0.1738,-0.1734,-0.1731,0,-0.1836,-0.1842,-0.192,-0.1944,-0.1976,-0.2035,-0.2092,-0.2206,-0.2293,-0.2377,-0.2419,-0.2358,-0.229,-0.2088,-0.1903,-0.1721,-0.1829,-0.1535,-0.1529,-0.1823,-0.1815,-0.1827,-0.1838,-0.1353,-0.1347,-0.1342,-0.1338,0,-0.1766,-0.1789,-0.1821,-0.1858,-0.191,-0.1983,-0.209,-0.2134,-0.2272,-0.2328,-0.2315,-0.2243,-0.2056,-0.178,-0.1578,-0.1456,-0.1546,-0.1427,-0.1762,-0.1468,-0.1443,-0.1439,-0.1464,-0.1295,-0.1299,-0.1302,-0.1305,-0.1307,-0.171,-0.1707,-0.1738,-0.1757,-0.1838,-0.1888,-0.1879,-0.2,-0.2044,-0.2043,-0.2102,-0.1919,-0.1851,-0.1388,-0.1245,-0.1077,-0.1192,-0.1155,-0.1174,-0.1197,-0.1154,-0.1121,-0.0905,-0.0907,-0.0909,-0.091,-0.0911,0,-0.1635,-0.1628,-0.1643,-0.1672,-0.1714,-0.178,-0.186,-0.181,-0.1774,-0.1772,-0.1703,-0.1403,-0.1226,-0.1109,-0.0792,-0.0734,-0.0753,-0.069,-0.0761,-0.0802,-0.0839,-0.0783,-0.0433,-0.0431,-0.043,-0.0429,0,0,-0.159,-0.1556,-0.1539,-0.1519,-0.1557,-0.1529,-0.1512,-0.1422,-0.1386,-0.1205,-0.1089,-0.1135,-0.1112,-0.0812,-0.0724,-0.0544,-0.0672,-0.0478,-0.0859,-0.0986,-0.1023,-0.109,-0.1046,0,0,0,0,0]},{"header":{"parameterUnit":"m.s-1","parameterCategory":2,"la1":30.2991,"la2":30.254,"lo1":-89.0895,"lo2":-89.0444,"dy":0.0017,"dx":0.0017,"nx":28,"ny":28,"refTime":"2023-10-20T09:00:00:Z","depth":"2","parameterNumber":3,"parameterNumberName":"V-component_of_CURRENTS"},"data":[0,0,0,0,0,0,0,0,0,0,0,0,0,0,0,0,0,0,0,0,0,0,0,0,0,0,0,0,0,0,0,0,0,0,0,0,0,0,0,0,0,0,0,0,0,0,0,0,0,0,0,0,0,0,0,0,0,0,-0.0394,-0.0393,0,-0.0313,-0.0312,-0.0311,-0.0262,-0.0262,-0.0262,-0.0262,-0.0115,-0.0111,-0.0108,0,0,0,0,0,0,0,0,0,0,0,0,0,-0.0443,-0.0443,-0.0394,-0.0393,-0.0392,-0.0314,-0.0312,-0.0311,-0.0262,-0.0262,-0.0262,-0.0262,-0.0116,-0.0112,-0.0107,0,0,0,0,0,0,0,0,0,0,0,0,0,-0.0398,-0.0443,-0.0394,-0.0359,-0.0355,-0.0314,-0.0312,-0.0311,-0.0262,-0.0262,-0.0262,-0.0261,-0.0118,-0.0112,-0.0107,-0.0077,0,0,-0.0089,-0.0087,0,0,0,0,0,0,0,0,-0.04,-0.0396,-0.0365,-0.0361,-0.0357,-0.0298,-0.0276,-0.023,-0.0262,-0.0297,-0.0262,-0.0261,-0.0171,-0.0161,-0.0146,-0.0071,-0.0064,-0.0089,-0.0086,-0.0083,-0.0082,0,0,0,0,0,0,0,-0.0404,-0.0399,-0.0361,-0.0364,-0.0359,-0.0325,-0.0319,-0.0267,-0.0234,-0.0294,-0.029,-0.0282,-0.0168,-0.0152,-0.0142,-0.0062,-0.0089,-0.0084,-0.0081,-0.0078,0.0049,0.005,0,0,0,0,0,0,-0.0419,-0.0402,-0.0364,-0.0359,-0.0379,-0.0325,-0.0318,-0.0317,-0.0236,-0.0225,-0.0283,-0.028,-0.0161,-0.0149,-0.0137,-0.0085,-0.0083,-0.0078,-0.0075,0.0049,0.0049,0.005,0,0,0,0,0,0,-0.042,-0.0416,-0.0367,-0.0379,-0.037,-0.0325,-0.0324,-0.0315,-0.0298,-0.0229,-0.0216,-0.0275,-0.0161,-0.0144,-0.0092,-0.0079,-0.0075,-0.007,0.0049,0.0049,0.0049,0.0012,0,0,0,0,0,0,-0.0422,-0.0418,-0.0424,-0.038,-0.037,-0.0349,-0.0324,-0.0314,-0.0294,-0.0291,-0.0217,-0.0203,-0.0159,-0.01,-0.0086,-0.0071,-0.0066,0.0049,0.0049,0.0049,0.0013,0.001,0.0008,0,0,0,0,0,-0.0424,-0.0434,-0.0425,-0.042,-0.038,-0.0349,-0.0341,-0.0307,-0.0295,-0.029,-0.024,-0.0206,-0.009,-0.0096,-0.0079,-0.0062,0.0049,0.0049,0.0049,0.0014,0.0011,0.0008,0,0,0,0,0,0,-0.0451,-0.0429,-0.0417,-0.0418,-0.0389,-0.0341,-0.0335,-0.0311,-0.0269,-0.0264,-0.02,-0.0182,-0.0138,-0.0096,-0.0104,-0.0028,-0.0016,-0.0013,-0.0049,-0.0051,-0.0054,-0.0055,-0.0061,0,0,0,0,0,-0.0463,-0.0471,-0.0433,-0.0435,-0.0423,-0.038,-0.0365,-0.0341,-0.0298,-0.028,-0.0228,-0.0173,-0.0125,-0.0086,-0.0045,0.0008,0.0043,0.0027,0.0025,0.0023,0.0032,0.0089,0.0093,0.005,0.005,0.005,0,0,-0.0473,-0.0463,-0.0466,-0.0442,-0.0417,-0.0398,-0.037,-0.0351,-0.0326,-0.0269,-0.0223,-0.0185,-0.0118,-0.0068,-0.0043,-0.0027,0.005,0.0023,0.0021,0.0032,0.0089,0.0094,0.0098,0.005,0.005,0.005,0,0,-0.0496,-0.0489,-0.0499,-0.0478,-0.0448,-0.0418,-0.0415,-0.0369,-0.0342,-0.0298,-0.0254,-0.0205,-0.013,-0.0074,-0.0036,-0.0022,0.0023,-0.0015,-0.0006,0.0048,0.0052,0.0057,0.009,0.0098,-0.0001,-0.0001,-0.0001,0,-0.0511,-0.0515,-0.0495,-0.049,-0.0473,-0.043,-0.0421,-0.0384,-0.0325,-0.0295,-0.0291,-0.0178,-0.0128,-0.0047,-0.0045,-0.0025,0.0003,-0.0001,0.0046,0.0051,0.0056,0.009,0.0098,-0.0003,-0.0003,-0.0003,-0.0002,0,-0.0532,-0.0531,-0.0533,-0.0515,-0.0493,-0.0481,-0.0428,-0.04,-0.0366,-0.032,-0.0253,-0.0187,-0.0114,-0.0095,-0.006,0.0005,0.0009,0.0023,0.0052,0.0058,0.0093,0.0103,-0.0006,-0.0005,-0.0004,-0.0004,0,0,-0.0577,-0.0556,-0.0555,-0.055,-0.0506,-0.0491,-0.0449,-0.0394,-0.0357,-0.0301,-0.0244,-0.0165,-0.0128,-0.0084,-0.0035,0.0021,0.0072,0.0037,0.0041,0.0069,0.0178,0.0211,0.0225,0.0092,0.0094,0.0096,0.0182,0,-0.0599,-0.0606,-0.058,-0.0571,-0.0566,-0.0512,-0.0474,-0.0416,-0.0357,-0.0292,-0.021,-0.0148,-0.0121,-0.0088,-0.0027,0.0045,0.0099,0.0047,0.017,0.0174,0.0202,0.0238,0.0206,0.0283,0.0192,0.0194,0.0195,0,-0.0627,-0.0628,-0.0634,-0.06,-0.0591,-0.0574,-0.0508,-0.0468,-0.036,-0.0313,-0.0229,-0.0162,-0.0065,-0.0054,0.0085,0.0047,0.0111,0.0164,0.0169,0.0225,0.0227,0.0267,0.0305,0.0212,0.0211,0.0209,0.0208,0,-0.0679,-0.0662,-0.0673,-0.0663,-0.0617,-0.0603,-0.057,-0.0478,-0.044,-0.0325,-0.0282,-0.0157,-0.0094,0.0002,0.0114,0.0101,0.0257,0.0256,0.0346,0.0348,0.036,0.0361,0.0356,0.0356,0.0356,0.0356,0.0356,0,-0.0716,-0.072,-0.0702,-0.0708,-0.0704,-0.0654,-0.0626,-0.0566,-0.048,-0.0409,-0.0303,-0.0208,-0.0077,0.0035,0.0121,0.0269,0.0266,0.0363,0.0385,0.0344,0.0342,0.0313,0.0307,0.0359,0.0358,0.0358,0.0357,0,-0.0761,-0.0756,-0.0764,-0.0738,-0.0734,-0.073,-0.0684,-0.0659,-0.0568,-0.0471,-0.0437,-0.0251,-0.0079,0.0041,0.0216,0.0284,0.0411,0.0461,0.0394,0.0409,0.0459,0.045,0.0577,0.0579,0.0581,0.0582,0.0584,0,-0.0782,-0.0798,-0.08,-0.0819,-0.0811,-0.0802,-0.0797,-0.0717,-0.0672,-0.047,-0.042,-0.0226,-0.0047,0.0199,0.035,0.0504,0.0489,0.0551,0.0537,0.0479,0.0488,0.0476,0.0464,0.0525,0.0526,0.0527,0.0527,0,-0.0808,-0.0816,-0.0822,-0.0876,-0.0891,-0.0901,-0.0872,-0.0851,-0.0717,-0.0598,-0.0377,-0.0213,0.0077,0.0286,0.0467,0.0548,0.0521,0.0571,0.0549,0.0476,0.0439,0.0444,0.0433,0.0532,0.0532,0.0531,0.0531,0.0531,-0.0817,-0.0834,-0.0867,-0.0916,-0.096,-0.0997,-0.0973,-0.0888,-0.0791,-0.0562,-0.041,-0.0129,0.0056,0.0357,0.0499,0.0631,0.0632,0.0631,0.0626,0.0621,0.0601,0.057,0.0682,0.0683,0.0683,0.0683,0.0684,0,-0.0809,-0.085,-0.0908,-0.098,-0.1072,-0.1059,-0.1018,-0.0956,-0.0795,-0.0533,-0.0316,-0.0125,0.0116,0.034,0.0576,0.0688,0.0653,0.0686,0.0614,0.0608,0.0604,0.058,0.0657,0.0658,0.0658,0.0659,0,0,-0.081,-0.0856,-0.0902,-0.1067,-0.1134,-0.1167,-0.113,-0.0967,-0.0761,-0.0486,-0.0247,-0.0102,0.0177,0.029,0.0433,0.0594,0.0569,0.059,0.0597,0.0491,0.0486,0.0556,0.0512,0,0,0,0,0]}],[{"header":{"parameterUnit":"m.s-1","parameterCategory":2,"la1":30.2991,"la2":30.254,"lo1":-89.0895,"lo2":-89.0444,"dy":0.0017,"dx":0.0017,"nx":28,"ny":28,"refTime":"2023-10-20T09:00:00:Z","depth":"4","parameterNumber":2,"parameterNumberName":"U-component_of_CURRENTS"},"data":[0,0,0,0,0,0,0,0,0,0,0,0,0,0,0,0,0,0,0,0,0,0,0,0,0,0,0,0,0,0,0,0,0,0,0,0,0,0,0,0,0,0,0,0,0,0,0,0,0,0,0,0,0,0,0,0,0,0,-0.1575,-0.1576,0,-0.1637,-0.1637,-0.1638,-0.1664,-0.1664,-0.1664,-0.1664,-0.1709,-0.171,-0.1711,0,0,0,0,0,0,0,0,0,0,0,0,0,-0.1508,-0.1509,-0.1575,-0.1576,-0.1577,-0.1637,-0.1637,-0.1638,-0.1664,-0.1664,-0.1664,-0.1664,-0.1709,-0.171,-0.1711,0,0,0,0,0,0,0,0,0,0,0,0,0,-0.1549,-0.1509,-0.1575,-0.1598,-0.1601,-0.1637,-0.1637,-0.1638,-0.1664,-0.1664,-0.1664,-0.1664,-0.1708,-0.171,-0.1712,-0.1722,0,0,-0.1717,-0.1718,0,0,0,0,0,0,0,0,-0.1546,-0.1551,-0.1593,-0.1596,-0.1599,-0.1644,-0.1631,-0.1666,-0.1664,-0.1638,-0.1664,-0.1664,-0.1687,-0.169,-0.17,-0.1724,-0.1726,-0.1717,-0.1718,-0.1719,-0.1719,0,0,0,0,0,0,0,-0.1544,-0.1549,-0.1598,-0.1594,-0.1598,-0.1616,-0.1621,-0.1638,-0.166,-0.164,-0.1643,-0.1652,-0.1688,-0.1698,-0.1701,-0.1727,-0.1717,-0.1719,-0.172,-0.172,-0.1799,-0.18,0,0,0,0,0,0,-0.1538,-0.1546,-0.1596,-0.16,-0.1574,-0.1617,-0.1623,-0.1628,-0.166,-0.1666,-0.1652,-0.1653,-0.1695,-0.1699,-0.1703,-0.176,-0.1719,-0.1721,-0.1722,-0.1798,-0.1799,-0.18,0,0,0,0,0,0,-0.1536,-0.1541,-0.1593,-0.1576,-0.1584,-0.1618,-0.1624,-0.163,-0.1665,-0.167,-0.1674,-0.1685,-0.1695,-0.17,-0.173,-0.176,-0.1721,-0.1723,-0.1797,-0.1798,-0.18,-0.1846,0,0,0,0,0,0,-0.1534,-0.154,-0.1558,-0.1575,-0.1585,-0.1627,-0.1624,-0.1631,-0.167,-0.1673,-0.1699,-0.1702,-0.1696,-0.1727,-0.1732,-0.1761,-0.1724,-0.1796,-0.1798,-0.1799,-0.1843,-0.1849,-0.1854,0,0,0,0,0,-0.1531,-0.1552,-0.1558,-0.1566,-0.1602,-0.1628,-0.1635,-0.1658,-0.1672,-0.169,-0.1704,-0.1702,-0.1743,-0.173,-0.1735,-0.1766,-0.1795,-0.1797,-0.1799,-0.1841,-0.1848,-0.1854,0,0,0,0,0,0,-0.1541,-0.1557,-0.1564,-0.1592,-0.1614,-0.1633,-0.1661,-0.1676,-0.1704,-0.1715,-0.1716,-0.1719,-0.1754,-0.1755,-0.1741,-0.1793,-0.1769,-0.1772,-0.1799,-0.1805,-0.1811,-0.1805,-0.1726,0,0,0,0,0,-0.1549,-0.1565,-0.1583,-0.1609,-0.1623,-0.1648,-0.167,-0.1684,-0.1705,-0.1719,-0.1735,-0.1751,-0.1765,-0.1781,-0.179,-0.1825,-0.18,-0.1847,-0.1853,-0.1857,-0.1856,-0.1843,-0.1847,-0.1808,-0.1808,-0.1808,0,0,-0.1564,-0.1573,-0.1587,-0.1612,-0.1635,-0.166,-0.1662,-0.1701,-0.1726,-0.1719,-0.1766,-0.1772,-0.1777,-0.1807,-0.1824,-0.1815,-0.1854,-0.186,-0.1864,-0.186,-0.1846,-0.1849,-0.1852,-0.181,-0.1809,-0.1809,0,0,-0.1586,-0.1608,-0.1624,-0.1645,-0.1678,-0.1692,-0.1709,-0.1741,-0.1762,-0.1801,-0.1798,-0.1819,-0.1853,-0.1853,-0.1859,-0.1902,-0.1879,-0.1916,-0.1946,-0.1934,-0.1937,-0.1939,-0.1904,-0.1903,-0.1924,-0.1924,-0.1924,0,-0.1604,-0.1622,-0.1637,-0.1657,-0.1682,-0.1709,-0.1737,-0.1763,-0.1801,-0.1818,-0.1823,-0.1864,-0.1871,-0.1896,-0.1911,-0.1914,-0.1896,-0.1922,-0.194,-0.1942,-0.1943,-0.1907,-0.1904,-0.1926,-0.1926,-0.1926,-0.1926,0,-0.1624,-0.1654,-0.167,-0.1699,-0.1728,-0.176,-0.1791,-0.1826,-0.1858,-0.1875,-0.1915,-0.1919,-0.194,-0.1951,-0.1947,-0.1969,-0.1947,-0.1943,-0.1921,-0.1949,-0.1909,-0.1906,-0.193,-0.1929,-0.1928,-0.1928,0,0,-0.1608,-0.1672,-0.1677,-0.1702,-0.1754,-0.1776,-0.1828,-0.1869,-0.1902,-0.1937,-0.1968,-0.1996,-0.1999,-0.2005,-0.2003,-0.2,-0.1993,-0.1984,-0.1983,-0.1944,-0.1951,-0.1807,-0.179,-0.1995,-0.1995,-0.1995,-0.1915,0,-0.1617,-0.1663,-0.1693,-0.1748,-0.1775,-0.1821,-0.1863,-0.1907,-0.1944,-0.1979,-0.1993,-0.2019,-0.202,-0.2031,-0.2031,-0.2,-0.1989,-0.2014,-0.1933,-0.193,-0.1795,-0.1783,-0.1995,-0.1913,-0.1912,-0.1911,-0.1911,0,-0.1604,-0.1641,-0.1697,-0.1768,-0.1786,-0.1825,-0.1893,-0.1933,-0.1987,-0.2013,-0.2045,-0.2054,-0.2062,-0.2055,-0.2019,-0.2036,-0.2001,-0.1972,-0.1968,-0.1814,-0.178,-0.1881,-0.1905,-0.1905,-0.1906,-0.1906,-0.1907,0,-0.1557,-0.1635,-0.1682,-0.1707,-0.1794,-0.1832,-0.1878,-0.1943,-0.1966,-0.2029,-0.2043,-0.2068,-0.2062,-0.204,-0.199,-0.2009,-0.1927,-0.1942,-0.1775,-0.1764,-0.19,-0.1898,-0.1908,-0.1908,-0.1909,-0.1909,-0.1909,0,-0.1525,-0.1564,-0.1669,-0.1692,-0.1742,-0.1815,-0.186,-0.1915,-0.1969,-0.1973,-0.205,-0.204,-0.2059,-0.2019,-0.1985,-0.1848,-0.1919,-0.1762,-0.173,-0.192,-0.1922,-0.1896,-0.1896,-0.1906,-0.1906,-0.1907,-0.1908,0,-0.1455,-0.1526,-0.1583,-0.1689,-0.1717,-0.1752,-0.1827,-0.1847,-0.1925,-0.1928,-0.1943,-0.2001,-0.195,-0.1936,-0.1878,-0.1805,-0.1716,-0.1654,-0.1835,-0.1818,-0.1567,-0.1571,-0.1459,-0.1453,-0.1448,-0.1444,-0.1441,0,-0.142,-0.1448,-0.1561,-0.1581,-0.1629,-0.1687,-0.171,-0.1802,-0.1804,-0.1876,-0.1848,-0.1854,-0.1865,-0.1663,-0.1686,-0.1585,-0.1569,-0.1511,-0.1562,-0.1539,-0.152,-0.1531,-0.1541,-0.1433,-0.1432,-0.143,-0.1429,0,-0.1356,-0.1412,-0.1459,-0.149,-0.1525,-0.1543,-0.1581,-0.1567,-0.1645,-0.1745,-0.1689,-0.1658,-0.1595,-0.1554,-0.1474,-0.1417,-0.1545,-0.146,-0.1471,-0.1518,-0.1506,-0.1494,-0.151,-0.1412,-0.1414,-0.1416,-0.1417,0,-0.131,-0.132,-0.1371,-0.1376,-0.1402,-0.1355,-0.141,-0.1396,-0.141,-0.1501,-0.1478,-0.1505,-0.1568,-0.1463,-0.1397,-0.1316,-0.1305,-0.126,-0.1282,-0.1301,-0.1285,-0.1249,-0.1029,0,0,0,0,0,-0.1258,-0.1239,-0.1242,-0.1218,-0.1225,-0.1222,-0.1287,-0.1343,-0.143,-0.1339,-0.1398,-0.134,-0.1266,-0.1298,-0.1176,-0.1311,-0.1299,-0.1164,-0.1259,-0.1317,-0.1336,-0.1333,0,0,0,0,0,0,-0.1215,-0.1231,-0.12,-0.1056,-0.0998,-0.0974,-0.1008,-0.1085,-0.1044,-0.1162,-0.1133,-0.1227,-0.1179,-0.1287,-0.1134,-0.1135,-0.1158,-0.1192,-0.1187,-0.1305,-0.1323,-0.1339,-0.1342,0,0,0,0,0]},{"header":{"parameterUnit":"m.s-1","parameterCategory":2,"la1":30.2991,"la2":30.254,"lo1":-89.0895,"lo2":-89.0444,"dy":0.0017,"dx":0.0017,"nx":28,"ny":28,"refTime":"2023-10-20T09:00:00:Z","depth":"4","parameterNumber":3,"parameterNumberName":"V-component_of_CURRENTS"},"data":[0,0,0,0,0,0,0,0,0,0,0,0,0,0,0,0,0,0,0,0,0,0,0,0,0,0,0,0,0,0,0,0,0,0,0,0,0,0,0,0,0,0,0,0,0,0,0,0,0,0,0,0,0,0,0,0,0,0,-0.03,-0.0299,0,-0.0254,-0.0254,-0.0253,-0.0226,-0.0226,-0.0226,-0.0226,-0.0153,-0.0151,-0.0149,0,0,0,0,0,0,0,0,0,0,0,0,0,-0.0322,-0.0322,-0.03,-0.0299,-0.0299,-0.0254,-0.0254,-0.0253,-0.0226,-0.0226,-0.0226,-0.0226,-0.0153,-0.0151,-0.0149,0,0,0,0,0,0,0,0,0,0,0,0,0,-0.0298,-0.0322,-0.03,-0.028,-0.0278,-0.0254,-0.0254,-0.0253,-0.0226,-0.0226,-0.0226,-0.0226,-0.0154,-0.0151,-0.0148,-0.0133,0,0,-0.014,-0.0139,0,0,0,0,0,0,0,0,-0.0299,-0.0297,-0.0284,-0.0282,-0.0279,-0.0246,-0.0235,-0.0212,-0.0226,-0.0245,-0.0226,-0.0226,-0.0182,-0.0177,-0.0168,-0.013,-0.0127,-0.014,-0.0138,-0.0137,-0.0136,0,0,0,0,0,0,0,-0.0301,-0.0299,-0.0281,-0.0283,-0.028,-0.026,-0.0256,-0.023,-0.0214,-0.0244,-0.0242,-0.0237,-0.018,-0.0171,-0.0166,-0.0126,-0.014,-0.0137,-0.0135,-0.0134,-0.0066,-0.0066,0,0,0,0,0,0,-0.031,-0.03,-0.0283,-0.028,-0.029,-0.026,-0.0256,-0.0256,-0.0215,-0.0209,-0.0238,-0.0236,-0.0176,-0.0169,-0.0163,-0.0129,-0.0137,-0.0134,-0.0132,-0.0066,-0.0066,-0.0066,0,0,0,0,0,0,-0.0311,-0.0309,-0.0285,-0.0289,-0.0285,-0.026,-0.026,-0.0256,-0.025,-0.021,-0.0204,-0.0237,-0.0175,-0.0167,-0.0145,-0.0126,-0.0133,-0.013,-0.0066,-0.0066,-0.0066,-0.0068,0,0,0,0,0,0,-0.0312,-0.031,-0.0317,-0.029,-0.0285,-0.0277,-0.026,-0.0255,-0.0247,-0.0245,-0.0207,-0.02,-0.0175,-0.015,-0.0142,-0.0122,-0.0128,-0.0067,-0.0066,-0.0066,-0.0068,-0.0068,-0.0068,0,0,0,0,0,-0.0313,-0.0323,-0.0318,-0.0316,-0.0295,-0.0278,-0.0273,-0.0254,-0.0247,-0.0248,-0.0222,-0.0202,-0.0143,-0.0147,-0.0139,-0.0118,-0.0067,-0.0066,-0.0066,-0.0068,-0.0068,-0.0068,0,0,0,0,0,0,-0.0334,-0.0321,-0.0315,-0.032,-0.0304,-0.0274,-0.0274,-0.0259,-0.024,-0.0239,-0.0202,-0.0193,-0.0169,-0.0148,-0.0154,-0.0099,-0.01,-0.0098,-0.0105,-0.0104,-0.0104,-0.0092,-0.0126,0,0,0,0,0,-0.0344,-0.0353,-0.0329,-0.0335,-0.0329,-0.0303,-0.0295,-0.0282,-0.0259,-0.025,-0.0222,-0.0192,-0.016,-0.0138,-0.0116,-0.0084,-0.0058,-0.0065,-0.0065,-0.0065,-0.005,0.0011,0.0019,-0.0065,-0.0065,-0.0065,0,0,-0.0354,-0.0349,-0.0354,-0.0341,-0.0327,-0.0314,-0.0298,-0.029,-0.0271,-0.0245,-0.0218,-0.0197,-0.0156,-0.0123,-0.0108,-0.01,-0.0035,-0.0065,-0.0065,-0.0049,0.0013,0.0021,0.0029,-0.0065,-0.0065,-0.0065,0,0,-0.0374,-0.0374,-0.0384,-0.037,-0.0354,-0.0333,-0.0333,-0.0306,-0.0287,-0.0265,-0.0235,-0.0199,-0.0164,-0.0115,-0.0088,-0.0073,-0.0045,-0.0074,-0.0047,0.0012,0.002,0.0028,0.0041,0.005,-0.0062,-0.0062,-0.0062,0,-0.0388,-0.0391,-0.0383,-0.038,-0.0366,-0.0343,-0.0334,-0.031,-0.0278,-0.025,-0.0261,-0.0178,-0.0151,-0.0074,-0.0071,-0.0067,-0.005,-0.005,0.0014,0.0023,0.003,0.0043,0.0053,-0.0062,-0.0062,-0.0062,-0.0062,0,-0.0404,-0.0404,-0.0407,-0.0394,-0.0379,-0.0371,-0.0334,-0.0315,-0.0295,-0.0258,-0.02,-0.0161,-0.0103,-0.0091,-0.0076,0.0,-0.0014,-0.0002,0.0017,0.0039,0.005,0.006,-0.0062,-0.0062,-0.0062,-0.0062,0,0,-0.0439,-0.0422,-0.0424,-0.0413,-0.0384,-0.0372,-0.0338,-0.0287,-0.025,-0.0217,-0.0157,-0.01,-0.0072,-0.004,-0.0008,0.0048,0.0102,0.0045,0.0048,0.0063,0.02,0.0167,0.0175,0.0126,0.0128,0.013,0.0174,0,-0.0451,-0.0451,-0.0434,-0.0419,-0.0408,-0.037,-0.0336,-0.0286,-0.0241,-0.0182,-0.0113,-0.006,-0.0051,-0.0026,0.0035,0.0082,0.0134,0.0087,0.0174,0.0176,0.0149,0.0188,0.0138,0.0182,0.0185,0.0186,0.0188,0,-0.0469,-0.0463,-0.0459,-0.0418,-0.0409,-0.0398,-0.0331,-0.0296,-0.0201,-0.0163,-0.0085,-0.0038,0.005,0.0047,0.0161,0.0127,0.0167,0.0202,0.0205,0.0189,0.0164,0.0163,0.0207,0.0205,0.0204,0.0202,0.0201,0,-0.0495,-0.0476,-0.0474,-0.0463,-0.0418,-0.0404,-0.0376,-0.0294,-0.0259,-0.0151,-0.0124,-0.0001,0.0028,0.0126,0.0177,0.0179,0.0284,0.0299,0.0311,0.0306,0.0323,0.0315,0.0397,0.0397,0.0397,0.0397,0.0397,0,-0.0506,-0.0504,-0.0492,-0.049,-0.0476,-0.0433,-0.04,-0.0347,-0.0272,-0.0244,-0.0125,-0.0098,0.0048,0.0116,0.0191,0.0264,0.0295,0.0328,0.0333,0.0313,0.0304,0.0328,0.0319,0.0398,0.0398,0.0398,0.0397,0,-0.0527,-0.0524,-0.0523,-0.0497,-0.0494,-0.0486,-0.0449,-0.0422,-0.0348,-0.0313,-0.0288,-0.0171,-0.008,0.0053,0.019,0.0248,0.0345,0.0362,0.0299,0.0296,0.0326,0.0317,0.0411,0.0411,0.041,0.041,0.041,0,-0.0531,-0.0538,-0.0547,-0.0564,-0.056,-0.0547,-0.0543,-0.0472,-0.0453,-0.0385,-0.0382,-0.0276,-0.0195,-0.0022,0.0119,0.0297,0.0315,0.0361,0.0395,0.0341,0.0337,0.0328,0.0319,0.0409,0.0409,0.0409,0.0409,0,-0.0533,-0.0555,-0.056,-0.0605,-0.0625,-0.0627,-0.0622,-0.0614,-0.0555,-0.0498,-0.045,-0.0332,-0.0228,-0.0055,0.0082,0.0201,0.0343,0.0358,0.0361,0.0393,0.034,0.0333,0.0325,0.0408,0.0408,0.0408,0.0408,0,-0.0543,-0.0562,-0.0598,-0.0634,-0.0672,-0.0706,-0.0687,-0.0668,-0.0634,-0.0551,-0.0562,-0.0411,-0.0317,-0.0111,-0.0,0.014,0.019,0.0236,0.0246,0.0249,0.0197,0.0105,0.012,0,0,0,0,0,-0.0539,-0.0576,-0.0621,-0.0668,-0.0716,-0.0738,-0.0741,-0.0716,-0.0677,-0.0652,-0.0591,-0.049,-0.0284,-0.0191,-0.0053,-0.0004,0.0207,0.0161,0.0262,0.0401,0.0402,0.0368,0,0,0,0,0,0,-0.0544,-0.0588,-0.0624,-0.0701,-0.0743,-0.0788,-0.0797,-0.0771,-0.073,-0.0676,-0.0557,-0.0475,-0.0263,-0.0368,-0.006,-0.0016,0.0063,0.0272,0.0274,0.04,0.0401,0.0402,0.0367,0,0,0,0,0]}]]